Biloxi, MS

5:37 AM CDT on September 29, 2016 (GMT -0500)
Keesler Air Force Base

Weather History for KBIX - January, 2013

Change the Weather History Date:

Monday, January 14, 2013

  Actual Average Record
Temperature  
Mean Temperature 50 °F -  
Max Temperature 57 °F 58 °F 71 °F (1950)
Min Temperature 42 °F 40 °F 20 °F (1964)
Degree Days  
Heating Degree Days 16    
Moisture  
Dew Point 50 °F    
Average Humidity 97    
Maximum Humidity 100    
Minimum Humidity 93    
Precipitation  
Precipitation 0.10 in - - ()
Sea Level Pressure  
Sea Level Pressure 30.08 in    
Wind  
Wind Speed 9 mph (NNE)    
Max Wind Speed 15 mph    
Max Gust Speed 22 mph    
Visibility 6 miles    
Events Rain    
Averages and records for this station are not official NWS values.
T = Trace of Precipitation, MM = Missing Value Source: NWS Daily Summary

Daily Weather History Graph

Daily Weather History Graph

Search for Another Location

Airport or City:

Trip Planner

Search our weather history database for the weather conditions in past years. The results will help you decide how hot, cold, wet, or windy it might be!

Date:

Astronomy

Jan. 14, 2013 Rise Set
Actual Time 6:53 AM CST 5:16 PM CST
Civil Twilight 6:27 AM CST 5:42 PM CST
Nautical Twilight 5:57 AM CST 6:12 PM CST
Astronomical Twilight 5:28 AM CST 6:41 PM CST
Moon 8:43 AM CST (1/14) 8:43 PM CST (1/14)
Length of Visible Light 11h 15m
Length of Day
10h 23m
Waxing Crescent, 11% of the Moon is Illuminated
Jan 14
Waxing Crescent
Jan 18
First Quarter
Jan 26
Full
Feb 3
Last Quarter
Feb 10
New

Hourly Weather History & Observations

Time (CST) Temp. Windchill Dew Point Humidity Pressure Visibility Wind Dir Wind Speed Gust Speed Precip Events Conditions
12:28 AM 57.2 °F - 57.2 °F 100% 30.04 in 10.0 mi NNE 8.1 mph - N/A   Overcast
12:37 AM 57.2 °F - 55.4 °F 94% 30.04 in 10.0 mi NNE 9.2 mph - N/A   Overcast
12:46 AM 57.2 °F - 55.4 °F 94% 30.04 in 10.0 mi North 6.9 mph - N/A   Overcast
12:54 AM 57.2 °F - 55.4 °F 94% 30.05 in 10.0 mi NNE 8.1 mph - N/A Rain Light Rain
12:55 AM 57.0 °F - 55.8 °F 96% 30.05 in 10.0 mi NNE 8.1 mph - 0.00 in Rain Light Rain
1:01 AM 57.2 °F - 55.4 °F 94% 30.05 in 9.0 mi NNE 4.6 mph - N/A Rain Light Rain
1:03 AM 57.2 °F - 55.4 °F 94% 30.05 in 9.0 mi NNE 5.8 mph - N/A Rain Light Rain
1:27 AM 57.2 °F - 55.4 °F 94% 30.06 in 8.0 mi North 4.6 mph - N/A Rain Light Rain
1:28 AM 57.2 °F - 55.4 °F 94% 30.06 in 7.0 mi Variable 4.6 mph - N/A Rain Light Rain
1:34 AM 57.2 °F - 55.4 °F 94% 30.05 in 6.0 mi North 5.8 mph - N/A Rain Light Rain
1:42 AM 55.4 °F - 55.4 °F 100% 30.06 in 9.0 mi Variable 4.6 mph - N/A Rain Light Rain
1:47 AM 55.4 °F - 55.4 °F 100% 30.06 in 10.0 mi NNE 8.1 mph - N/A Rain Light Rain
1:50 AM 55.4 °F - 55.4 °F 100% 30.06 in 10.0 mi NNE 9.2 mph - N/A   Overcast
1:55 AM 56.1 °F - 55.0 °F 96% 30.05 in 10.0 mi NNE 10.4 mph - 0.03 in   Overcast
2:03 AM 55.4 °F - 55.4 °F 100% 30.05 in 10.0 mi NNE 10.4 mph - N/A   Overcast
2:13 AM 55.4 °F - 55.4 °F 100% 30.06 in 10.0 mi NNE 6.9 mph - N/A   Overcast
2:27 AM 55.4 °F - 55.4 °F 100% 30.06 in 10.0 mi Variable 6.9 mph - N/A   Overcast
2:55 AM 55.6 °F - 54.1 °F 95% 30.06 in 10.0 mi Variable 6.9 mph - N/A   Overcast
3:06 AM 55.4 °F - 53.6 °F 94% 30.06 in 10.0 mi Variable 5.8 mph - N/A   Overcast
3:55 AM 54.1 °F - 52.9 °F 95% 30.06 in 10.0 mi Variable 4.6 mph - N/A   Overcast
3:59 AM 53.6 °F - 53.6 °F 100% 30.05 in 10.0 mi NNE 8.1 mph - N/A   Overcast
4:25 AM 53.6 °F - 51.8 °F 94% 30.05 in 10.0 mi NNE 11.5 mph 16.1 mph N/A   Light Drizzle
4:35 AM 53.6 °F - 51.8 °F 94% 30.05 in 10.0 mi NNE 11.5 mph - N/A   Overcast
4:55 AM 52.9 °F - 51.8 °F 96% 30.05 in 10.0 mi NNE 11.5 mph 17.3 mph 0.00 in   Overcast
5:08 AM 51.8 °F - 51.8 °F 100% 30.05 in 10.0 mi NNE 9.2 mph - N/A   Overcast
5:28 AM 51.8 °F - 50.0 °F 94% 30.06 in 10.0 mi NNE 11.5 mph - N/A   Overcast
5:39 AM 51.8 °F - 50.0 °F 94% 30.07 in 10.0 mi NNE 8.1 mph - N/A   Overcast
5:55 AM 51.4 °F - 50.4 °F 96% 30.07 in 10.0 mi NNE 10.4 mph - N/A   Overcast
6:25 AM 50.0 °F - 50.0 °F 100% 30.08 in 7.0 mi NNE 11.5 mph - N/A   Overcast
6:31 AM 50.0 °F - 50.0 °F 100% 30.08 in 8.0 mi NE 13.8 mph - N/A   Overcast
6:39 AM 50.0 °F - 50.0 °F 100% 30.09 in 10.0 mi NE 12.7 mph - N/A   Overcast
6:45 AM 50.0 °F - 50.0 °F 100% 30.09 in 9.0 mi NNE 10.4 mph - N/A   Overcast
6:47 AM 50.0 °F - 50.0 °F 100% 30.09 in 9.0 mi NE 9.2 mph - N/A   Overcast
6:50 AM 50.0 °F - 50.0 °F 100% 30.09 in 8.0 mi NNE 11.5 mph 18.4 mph N/A   Overcast
6:55 AM 50.5 °F - 49.6 °F 97% 30.09 in 6.0 mi NNE 10.4 mph 18.4 mph N/A   Overcast
7:55 AM 50.2 °F - 49.3 °F 97% 30.10 in 10.0 mi NE 10.4 mph - N/A   Overcast
8:26 AM 50.0 °F - 48.2 °F 94% 30.11 in 10.0 mi NE 12.7 mph - N/A   Overcast
8:48 AM 50.0 °F - 48.2 °F 94% 30.12 in 5.0 mi NNE 10.4 mph - N/A   Overcast
8:55 AM 50.0 °F - 49.1 °F 97% 30.12 in 5.0 mi NNE 10.4 mph - N/A   Overcast
8:56 AM 50.0 °F - 50.0 °F 100% 30.12 in 5.0 mi NE 10.4 mph - N/A   Overcast
9:55 AM 51.3 °F - 50.5 °F 97% 30.12 in 4.0 mi NE 8.1 mph - N/A   Overcast
10:50 AM 51.8 °F - 51.8 °F 100% 30.10 in 2.5 mi NNE 8.1 mph - N/A   Overcast
10:55 AM 52.3 °F - 51.8 °F 98% 30.09 in 2.5 mi NNE 8.1 mph - N/A   Overcast
10:59 AM 51.8 °F - 51.8 °F 100% 30.09 in 3.0 mi NNE 8.1 mph - N/A   Overcast
11:32 AM 53.6 °F - 51.8 °F 94% 30.08 in 2.5 mi NNE 8.1 mph - N/A   Overcast
11:38 AM 53.6 °F - 51.8 °F 94% 30.08 in 2.0 mi North 8.1 mph - N/A   Overcast
11:42 AM 51.8 °F - 51.8 °F 100% 30.07 in 2.0 mi North 8.1 mph - N/A   Overcast
11:51 AM 53.6 °F - 51.8 °F 94% 30.07 in 1.8 mi NNE 8.1 mph - N/A   Overcast
11:55 AM 52.9 °F - 52.3 °F 98% 30.07 in 1.8 mi NNE 6.9 mph - N/A   Overcast
12:12 PM 53.6 °F - 53.6 °F 100% 30.06 in 1.5 mi NE 8.1 mph - N/A   Overcast
12:21 PM 53.6 °F - 53.6 °F 100% 30.05 in 1.8 mi NE 6.9 mph - N/A   Overcast
12:23 PM 53.6 °F - 53.6 °F 100% 30.05 in 2.0 mi NE 5.8 mph - N/A   Overcast
12:29 PM 53.6 °F - 53.6 °F 100% 30.04 in 2.5 mi NE 6.9 mph - N/A   Overcast
12:36 PM 55.4 °F - 53.6 °F 94% 30.04 in 2.5 mi NE 5.8 mph - N/A   Overcast
12:37 PM 55.4 °F - 53.6 °F 94% 30.04 in 3.0 mi NNE 5.8 mph - N/A   Overcast
12:55 PM 55.4 °F - 54.7 °F 97% 30.04 in 7.0 mi NNE 6.9 mph - N/A   Overcast
1:04 PM 55.4 °F - 55.4 °F 100% 30.03 in 2.5 mi NNE 6.9 mph - N/A   Overcast
1:55 PM 56.3 °F - 55.2 °F 96% 30.05 in 7.0 mi North 5.8 mph - N/A   Overcast
2:17 PM 57.2 °F - 55.4 °F 94% 30.06 in 1.0 mi North 9.2 mph - N/A   Overcast
2:18 PM 57.2 °F - 55.4 °F 94% 30.06 in 2.5 mi North 9.2 mph - N/A   Overcast
2:23 PM 57.2 °F - 55.4 °F 94% 30.06 in 1.0 mi North 9.2 mph - N/A   Overcast
2:32 PM 55.4 °F - 55.4 °F 100% 30.06 in 2.5 mi North 9.2 mph - N/A   Overcast
2:46 PM 55.4 °F - 55.4 °F 100% 30.06 in 1.0 mi North 8.1 mph - N/A   Overcast
2:57 PM 55.4 °F - 55.4 °F 100% 30.06 in 1.0 mi North 9.2 mph - N/A   Overcast
3:56 PM 55.4 °F - 53.6 °F 94% 30.07 in 1.0 mi NNE 11.5 mph - N/A   Overcast
4:49 PM 53.6 °F - 51.8 °F 94% 30.10 in 2.0 mi North 12.7 mph - N/A   Overcast
4:57 PM 51.8 °F - 51.8 °F 100% 30.10 in 3.0 mi North 13.8 mph - N/A   Overcast
5:55 PM 50.0 °F - 50.0 °F 100% 30.12 in 3.0 mi NNE 10.4 mph - N/A   Overcast
6:58 PM 48.2 °F - 46.4 °F 93% 30.12 in 3.0 mi NNE 13.8 mph 21.9 mph N/A   Overcast
7:55 PM 46.4 °F 40.4 °F 46.4 °F 100% 30.10 in 2.5 mi NNE 13.8 mph 20.7 mph N/A   Overcast
8:45 PM 46.4 °F 40.7 °F 44.6 °F 93% 30.11 in 3.0 mi NNE 12.7 mph 20.7 mph N/A Rain Light Rain
8:55 PM 46.4 °F 40.4 °F 44.6 °F 93% 30.10 in 3.0 mi NNE 13.8 mph - N/A   Overcast
9:13 PM 46.4 °F 41.1 °F 44.6 °F 93% 30.09 in 10.0 mi NNE 11.5 mph - N/A Rain Light Rain
9:17 PM 44.6 °F 39.2 °F 44.6 °F 100% 30.09 in 10.0 mi NNE 10.4 mph - N/A   Overcast
9:34 PM 44.6 °F 38.1 °F 44.6 °F 100% 30.10 in 8.0 mi NNE 13.8 mph - N/A   Overcast
9:52 PM 44.6 °F 37.8 °F 42.8 °F 93% 30.09 in 8.0 mi NNE 15.0 mph 19.6 mph N/A   Overcast
9:55 PM 44.4 °F 37.9 °F 43.7 °F 97% 30.09 in 8.0 mi NNE 13.8 mph 19.6 mph 0.00 in   Overcast
10:08 PM 44.6 °F 38.1 °F 42.8 °F 93% 30.09 in 5.0 mi NNE 13.8 mph - N/A   Overcast
10:12 PM 44.6 °F 38.1 °F 42.8 °F 93% 30.09 in 5.0 mi NNE 13.8 mph - N/A   Overcast
10:21 PM 44.6 °F 39.2 °F 42.8 °F 93% 30.09 in 5.0 mi North 10.4 mph - N/A Rain Light Rain
10:26 PM 44.6 °F 38.1 °F 42.8 °F 93% 30.10 in 7.0 mi North 13.8 mph - N/A   Overcast
10:36 PM 42.8 °F 37.0 °F 42.8 °F 100% 30.10 in 7.0 mi NNE 10.4 mph - N/A Rain Light Rain
10:43 PM 42.8 °F 36.6 °F 42.8 °F 100% 30.09 in 3.0 mi NNE 11.5 mph - N/A Rain Heavy Rain
10:46 PM 42.8 °F 36.6 °F 42.8 °F 100% 30.09 in 3.0 mi NNE 11.5 mph - N/A Rain Light Rain
10:47 PM 42.8 °F 37.0 °F 42.8 °F 100% 30.09 in 3.0 mi NNE 10.4 mph - N/A Rain Light Rain
10:48 PM 42.8 °F 37.5 °F 42.8 °F 100% 30.09 in 4.0 mi NNE 9.2 mph - N/A Rain Light Rain
10:55 PM 43.3 °F 37.7 °F 42.4 °F 97% 30.09 in 10.0 mi NNE 10.4 mph - 0.07 in Rain Light Rain
11:02 PM 42.8 °F 37.0 °F 42.8 °F 100% 30.09 in 10.0 mi NNE 10.4 mph - N/A Rain Light Rain
11:06 PM 42.8 °F 36.6 °F 42.8 °F 100% 30.09 in 10.0 mi NNE 11.5 mph - N/A   Overcast
11:15 PM 42.8 °F 37.0 °F 42.8 °F 100% 30.09 in 10.0 mi NNE 10.4 mph - N/A   Overcast
11:17 PM 42.8 °F 37.5 °F 42.8 °F 100% 30.09 in 10.0 mi NNE 9.2 mph - N/A   Overcast
11:27 PM 42.8 °F 36.2 °F 42.8 °F 100% 30.10 in 10.0 mi North 12.7 mph - N/A   Overcast
11:48 PM 42.8 °F 37.0 °F 42.8 °F 100% 30.09 in 10.0 mi North 10.4 mph - N/A   Overcast
11:55 PM 43.7 °F 38.1 °F 42.6 °F 96% 30.09 in 10.0 mi North 10.4 mph - 0.00 in   Overcast
11:58 PM 42.8 °F 37.0 °F 42.8 °F 100% 30.09 in 10.0 mi North 10.4 mph - N/A   Overcast